TimeCST,TemperatureF,Dew PointF,Humidity,Sea Level PressureIn,VisibilityMPH,Wind Direction,Wind SpeedMPH,Gust SpeedMPH,PrecipitationIn,Events,Conditions,WindDirDegrees,DateUTC
12:53 AM,55.0,41.0,59,30.29,10.0,ENE,4.6,-,N/A,,Clear,60,2013-11-05 06:53:00
1:53 AM,53.1,39.0,59,30.29,10.0,ENE,4.6,-,N/A,,Clear,60,2013-11-05 07:53:00
2:53 AM,52.0,39.0,61,30.28,10.0,ENE,3.5,-,N/A,,Clear,70,2013-11-05 08:53:00
3:53 AM,51.1,39.0,63,30.29,10.0,ENE,4.6,-,N/A,,Clear,60,2013-11-05 09:53:00
4:53 AM,50.0,39.0,66,30.29,10.0,Variable,3.5,-,N/A,,Clear,0,2013-11-05 10:53:00
5:53 AM,51.1,41.0,68,30.30,10.0,NE,3.5,-,N/A,,Mostly Cloudy,40,2013-11-05 11:53:00
6:53 AM,54.0,43.0,66,30.30,10.0,Variable,5.8,-,N/A,,Overcast,0,2013-11-05 12:53:00
7:53 AM,59.0,45.0,60,30.30,10.0,ENE,8.1,-,N/A,,Partly Cloudy,60,2013-11-05 13:53:00
8:53 AM,63.0,46.9,56,30.32,10.0,Variable,6.9,16.1,N/A,,Partly Cloudy,0,2013-11-05 14:53:00
9:53 AM,66.9,48.9,52,30.31,10.0,Variable,6.9,-,N/A,,Clear,0,2013-11-05 15:53:00
10:53 AM,69.1,48.9,49,30.30,10.0,ENE,9.2,-,N/A,,Mostly Cloudy,60,2013-11-05 16:53:00
11:53 AM,71.1,48.0,44,30.26,10.0,ESE,9.2,16.1,N/A,,Clear,110,2013-11-05 17:53:00
12:53 PM,71.1,46.0,41,30.25,10.0,East,8.1,19.6,N/A,,Scattered Clouds,100,2013-11-05 18:53:00
1:53 PM,72.0,48.9,44,30.23,10.0,ENE,9.2,-,N/A,,Mostly Cloudy,70,2013-11-05 19:53:00
2:53 PM,71.1,50.0,47,30.22,10.0,Variable,5.8,-,N/A,,Clear,0,2013-11-05 20:53:00
3:53 PM,69.1,48.9,49,30.22,10.0,Variable,3.5,-,N/A,,Clear,0,2013-11-05 21:53:00
4:53 PM,64.0,48.0,56,30.22,10.0,Calm,Calm,-,N/A,,Clear,0,2013-11-05 22:53:00
5:53 PM,59.0,48.9,69,30.23,10.0,Calm,Calm,-,N/A,,Clear,0,2013-11-05 23:53:00
6:53 PM,59.0,48.0,67,30.23,10.0,East,4.6,-,N/A,,Clear,80,2013-11-06 00:53:00
7:53 PM,60.1,46.0,60,30.24,10.0,East,4.6,-,N/A,,Clear,80,2013-11-06 01:53:00
8:53 PM,60.1,46.0,60,30.24,10.0,ENE,3.5,-,N/A,,Clear,70,2013-11-06 02:53:00
9:53 PM,59.0,46.9,64,30.24,10.0,ENE,4.6,-,N/A,,Overcast,70,2013-11-06 03:53:00
10:53 PM,60.1,46.9,62,30.23,10.0,Calm,Calm,-,N/A,,Overcast,0,2013-11-06 04:53:00
11:53 PM,60.1,46.9,62,30.22,10.0,ENE,3.5,-,N/A,,Overcast,70,2013-11-06 05:53:00